Temperature
-2 -3 -3 -4 -5 -6 -6 -6 -7 -7 -7 -7 -7 -7 -7 -7 -7 -7 -6 -6 -5 -4 -3 -2 -1 -0 1 1 2 3 4 6 8 9 10 11 12 14 14 15 15 16 16
-3 -3 -4 -5 -6 -7 -7 -7 -8 -8 -8 -8 -8 -8 -8 -8 -8 -8 -7 -7 -6 -5 -4 -3 -2 -1 -0 1 1 2 3 4 6 8 9 11 11 13 14 15 15 15 16
-4 -4 -5 -6 -6 -7 -8 -8 -8 -9 -9 -9 -9 -9 -9 -9 -9 -8 -8 -8 -7 -6 -5 -4 -3 -1 -1 0 1 1 2 3 5 6 8 10 11 12 13 14 15 15 15
-4 -5 -6 -6 -7 -8 -8 -9 -9 -9 -9 -9 -10 -10 -10 -9 -9 -9 -9 -8 -8 -7 -6 -5 -3 -2 -1 -0 0 1 1 2 3 5 7 9 10 11 12 13 14 15 15
-5 -5 -6 -7 -8 -8 -9 -9 -9 -10 -10 -10 -10 -10 -10 -10 -10 -10 -10 -9 -8 -7 -6 -5 -4 -3 -2 -1 -1 -0 0 1 2 3 5 8 9 10 11 13 14 14 15
-5 -6 -7 -8 -8 -9 -9 -10 -10 -10 -10 -10 -10 -10 -10 -10 -10 -10 -10 -10 -9 -8 -6 -5 -4 -4 -3 -2 -1 -1 -0 1 1 2 4 7 8 10 11 12 13 14 14
-6 -7 -8 -8 -9 -9 -9 -10 -10 -10 -10 -10 -11 -11 -11 -10 -11 -10 -10 -10 -10 -9 -8 -6 -5 -4 -4 -3 -3 -2 -1 -0 1 2 3 5 7 9 10 11 12 13 14
-7 -8 -8 -9 -9 -10 -10 -10 -10 -10 -10 -10 -11 -11 -11 -11 -11 -11 -11 -11 -10 -10 -9 -8 -7 -6 -5 -4 -4 -3 -2 -1 -0 1 2 4 6 8 9 10 12 13 14
-7 -8 -9 -9 -9 -10 -10 -10 -10 -10 -10 -10 -10 -11 -11 -11 -11 -11 -11 -11 -10 -10 -9 -8 -7 -6 -6 -5 -4 -4 -3 -2 -1 0 1 2 4 7 9 10 11 12 13
-7 -8 -9 -9 -10 -10 -10 -10 -10 -10 -10 -10 -10 -10 -11 -11 -11 -11 -11 -11 -10 -10 -10 -9 -8 -7 -6 -5 -5 -4 -3 -3 -2 -1 0 2 3 5 7 9 10 12 13
-7 -8 -9 -10 -10 -10 -10 -10 -10 -10 -10 -10 -10 -10 -10 -11 -11 -11 -11 -11 -10 -10 -9 -9 -8 -7 -6 -6 -5 -5 -4 -3 -2 -1 -0 1 2 4 6 8 10 11 12
-8 -8 -9 -10 -10 -10 -10 -11 -11 -10 -10 -10 -10 -11 -11 -11 -11 -11 -11 -11 -11 -9 -9 -9 -8 -7 -7 -6 -5 -4 -4 -3 -2 -2 -1 -0 1 3 5 7 9 10 12
-8 -9 -9 -10 -10 -11 -11 -11 -11 -11 -10 -10 -10 -11 -11 -11 -11 -10 -11 -10 -10 -10 -9 -9 -8 -8 -7 -6 -5 -4 -4 -3 -3 -3 -2 -1 1 3 4 6 8 10 11
-8 -9 -9 -10 -11 -11 -11 -11 -11 -11 -11 -11 -11 -11 -11 -11 -11 -11 -10 -10 -10 -10 -9 -9 -8 -8 -7 -7 -6 -5 -5 -4 -4 -3 -2 -1 0 2 4 6 8 9 10
-8 -9 -9 -10 -11 -11 -11 -11 -11 -11 -11 -11 -11 -11 -11 -11 -11 -11 -11 -10 -10 -10 -9 -9 -9 -8 -8 -7 -6 -6 -5 -5 -4 -4 -3 -1 0 2 3 5 7 8 10
-8 -9 -9 -10 -11 -11 -11 -11 -11 -11 -11 -11 -11 -11 -11 -11 -11 -11 -11 -11 -10 -10 -10 -9 -9 -9 -8 -8 -7 -6 -6 -5 -5 -4 -3 -2 -0 2 3 5 6 8 9
-8 -8 -9 -10 -11 -11 -11 -12 -11 -11 -11 -11 -11 -11 -12 -12 -12 -12 -11 -11 -11 -10 -10 -10 -9 -9 -9 -8 -8 -7 -6 -6 -5 -4 -3 -2 -0 1 3 4 6 7 9
-7 -8 -9 -10 -10 -11 -11 -12 -12 -11 -11 -11 -11 -11 -12 -12 -12 -12 -12 -11 -11 -10 -10 -10 -10 -9 -9 -9 -8 -8 -7 -5 -4 -3 -2 -1 -0 1 3 4 5 7 8
-7 -8 -9 -9 -10 -10 -11 -11 -11 -11 -11 -11 -11 -11 -12 -12 -12 -12 -11 -11 -11 -10 -10 -11 -10 -10 -10 -9 -9 -8 -7 -6 -4 -3 -2 -1 -0 1 3 4 5 7 8
-7 -8 -9 -9 -10 -10 -10 -10 -10 -10 -10 -10 -11 -11 -12 -12 -12 -12 -11 -11 -10 -10 -11 -11 -11 -10 -10 -9 -9 -8 -7 -5 -4 -3 -2 -1 0 1 3 4 6 7 8
-7 -8 -9 -9 -9 -9 -9 -10 -10 -9 -10 -10 -10 -11 -11 -12 -11 -11 -11 -11 -10 -11 -11 -11 -11 -11 -11 -10 -10 -9 -8 -6 -4 -3 -2 -1 0 1 3 4 5 7 8
-6 -7 -8 -9 -9 -9 -10 -9 -9 -9 -9 -10 -10 -11 -11 -12 -12 -11 -11 -11 -11 -11 -11 -11 -11 -11 -11 -11 -10 -10 -9 -8 -6 -3 -2 -1 0 1 3 4 5 7 8
-6 -7 -8 -9 -9 -9 -9 -9 -8 -8 -9 -10 -10 -11 -11 -12 -12 -11 -11 -12 -12 -12 -12 -11 -12 -12 -11 -11 -11 -10 -9 -8 -6 -3 -3 -1 0 1 3 4 5 7 8
-6 -7 -8 -9 -9 -9 -9 -9 -8 -8 -9 -10 -11 -11 -11 -12 -12 -11 -11 -12 -12 -12 -12 -12 -12 -12 -11 -11 -11 -10 -10 -8 -5 -3 -3 -2 1 2 3 4 5 7 8
-6 -7 -8 -9 -9 -9 -9 -9 -8 -9 -9 -10 -11 -11 -12 -12 -12 -11 -12 -12 -12 -12 -12 -12 -12 -12 -11 -11 -10 -10 -9 -8 -6 -3 -2 -1 1 2 3 4 5 6 7
-5 -6 -7 -8 -9 -9 -9 -9 -8 -9 -9 -10 -11 -11 -12 -12 -11 -11 -12 -12 -12 -12 -12 -12 -12 -12 -11 -11 -10 -10 -9 -8 -7 -4 -2 -1 1 2 3 4 5 6 7
Wind_Speed
12 15 16 17 18 19 18 19 20 20 21 22 22 23 24 26 27 27 27 32 34 35 35 34 34 33 31 30 28 27 26 24 24 23 23 23 22 21 21 25 31 32 32
14 14 15 16 16 18 19 19 19 19 18 18 18 22 24 26 25 27 28 31 34 36 36 35 34 33 32 30 28 27 25 24 23 23 23 22 22 21 20 22 29 33 33
14 14 14 14 16 18 19 18 18 17 15 15 13 19 21 23 25 27 29 29 30 33 35 35 35 33 31 29 27 26 25 24 23 23 22 23 22 21 20 20 26 32 34
14 14 13 13 17 18 17 14 10 6 8 9 10 10 17 20 22 25 28 29 29 29 31 35 35 33 30 28 26 25 24 24 24 23 23 23 23 22 21 20 23 30 35
12 13 13 15 17 16 14 14 8 8 10 10 11 10 8 11 16 24 24 28 30 30 29 31 33 31 29 26 25 25 24 24 24 24 23 23 23 22 22 21 21 27 34
12 13 13 14 16 12 8 7 10 9 9 9 14 14 11 11 13 13 18 22 25 28 26 25 22 21 23 22 22 23 24 24 24 23 23 23 24 23 22 22 21 23 32
12 13 12 13 13 8 7 8 9 10 10 8 11 13 12 11 13 12 11 13 19 25 25 23 17 13 12 17 20 21 22 23 23 23 23 23 24 24 22 21 22 22 28
13 13 12 11 12 8 9 9 9 9 11 9 10 15 14 13 10 13 12 15 16 17 19 22 19 17 14 12 16 21 23 23 23 24 23 23 23 24 24 22 22 22 25
13 13 13 13 12 9 8 9 9 10 12 11 7 8 11 14 17 12 12 13 13 14 15 16 18 17 17 14 14 19 22 23 23 23 23 23 23 24 24 23 22 22 23
13 14 14 13 12 11 8 9 9 9 11 13 11 7 9 11 13 15 11 9 13 15 14 15 14 16 17 15 17 21 23 23 23 23 22 22 23 23 24 23 22 22 21
12 14 14 13 12 11 10 9 9 10 9 11 11 12 12 11 11 11 16 16 13 11 12 14 13 12 17 17 16 19 23 23 22 21 21 21 22 22 22 22 21 20 20
8 12 14 13 13 13 10 9 9 11 10 10 10 10 12 11 12 11 13 16 15 14 12 13 13 12 14 16 19 21 21 21 20 20 20 21 22 22 21 20 20 18 18
5 6 12 12 12 13 13 12 8 10 11 10 10 10 10 11 12 13 13 14 15 14 12 12 11 10 12 13 13 19 18 18 18 20 21 21 22 21 21 20 19 19 17
5 10 12 13 14 14 14 12 7 9 10 10 12 11 10 10 10 12 12 13 14 13 11 11 10 10 9 12 15 18 12 17 20 21 22 22 21 21 20 20 18 18 17
9 12 13 12 13 12 12 10 7 10 10 9 9 10 9 10 10 10 11 11 11 13 14 11 9 10 10 12 17 15 11 18 21 23 23 23 22 21 21 20 18 17 15
9 10 9 9 10 10 10 7 8 9 11 10 9 10 10 10 10 10 10 10 10 11 13 10 10 11 13 14 20 16 14 22 23 24 25 24 23 23 22 21 18 17 15
8 7 8 8 8 8 7 8 9 11 11 11 10 10 12 12 10 10 10 10 10 10 13 12 10 11 13 13 13 13 14 12 15 24 25 25 24 24 23 21 19 17 14
8 9 9 8 9 10 9 10 12 12 12 12 12 11 12 12 11 11 10 12 11 11 11 15 12 11 12 12 13 13 13 13 11 21 24 25 24 23 22 21 19 17 13
7 8 8 9 10 10 10 11 12 12 13 13 12 12 12 11 12 11 12 12 11 11 9 11 13 11 10 10 12 13 13 11 13 16 21 23 24 24 23 22 20 17 13
8 9 9 9 9 10 12 14 13 14 14 14 13 12 11 11 12 13 12 12 12 10 9 10 11 11 10 9 9 10 12 10 11 12 15 16 19 22 23 22 21 18 14
10 8 9 9 10 11 12 15 13 13 12 12 12 11 11 15 18 16 14 12 11 8 9 10 11 10 9 9 9 9 12 12 12 9 8 10 10 10 11 18 19 17 14
9 9 9 9 12 13 22 28 20 10 9 10 10 9 10 13 17 23 25 23 19 13 12 10 10 10 10 9 9 10 11 11 8 5 7 9 8 9 9 10 14 16 15
9 9 9 9 12 16 26 27 26 13 9 8 8 8 9 10 15 11 17 18 17 21 20 13 11 11 11 10 11 12 11 12 12 10 9 8 7 9 8 11 16 16 14
9 8 9 10 12 16 25 26 25 11 8 7 8 8 8 8 12 15 10 9 10 11 15 11 10 11 11 11 11 12 12 13 14 12 10 6 7 7 8 8 14 16 14
8 8 8 9 10 13 23 25 22 6 6 7 8 8 9 8 19 23 12 11 13 10 14 19 20 17 17 16 13 7 7 8 8 6 4 5 5 5 5 6 9 15 14
8 8 8 8 9 10 20 24 22 5 6 7 7 7 14 16 21 22 11 11 14 11 11 13 14 15 12 12 14 7 6 8 6 5 4 4 4 3 3 4 6 7 8
Wind_Direction
342 337 333 330 329 330 333 332 325 322 323 320 317 318 318 315 312 308 306 303 300 298 295 291 289 287 284 281 280 280 279 279 280 282 285 285 281 279 266 239 217 207 203
343 336 331 326 326 331 330 324 321 320 317 315 316 318 315 311 309 308 307 306 301 297 293 290 287 285 281 277 276 276 276 276 278 281 284 287 282 278 274 254 226 210 205
341 336 325 322 324 326 323 320 316 313 315 318 316 313 310 308 306 305 304 301 298 295 291 287 285 282 278 273 271 272 273 275 277 279 282 287 286 278 274 265 236 216 207
335 332 323 319 319 323 319 314 309 315 314 310 308 307 306 304 304 305 304 300 297 292 287 285 283 280 278 272 269 270 272 274 275 277 278 283 286 281 272 268 249 223 210
331 329 320 312 319 318 312 313 322 313 308 308 306 303 303 306 304 303 302 300 298 291 282 277 276 276 275 271 270 270 272 272 273 273 276 279 284 284 275 267 258 233 215
326 323 311 312 316 311 308 308 308 305 304 305 308 307 301 297 300 299 299 305 309 304 295 282 274 274 275 273 271 270 270 270 270 272 273 275 279 283 280 268 261 244 221
319 312 305 307 308 304 300 301 306 307 306 303 307 308 302 293 293 297 300 311 308 308 308 304 295 290 286 281 281 281 275 272 270 270 271 272 276 278 281 273 262 252 230
309 308 305 302 302 300 300 301 305 305 307 310 309 311 310 308 300 304 303 300 302 307 309 309 311 304 296 287 281 279 278 275 273 271 271 270 273 275 276 277 266 256 238
306 305 303 300 300 299 297 299 300 304 308 306 293 298 306 307 311 301 294 296 299 301 300 300 297 292 289 283 277 276 275 273 272 271 271 271 271 273 273 275 270 259 245
309 308 305 303 302 299 294 300 311 302 304 307 305 287 279 288 299 306 304 294 299 301 304 306 306 303 295 286 278 274 271 269 269 269 269 270 271 271 270 273 272 261 250
306 305 305 307 303 301 297 299 304 302 302 301 307 307 301 294 285 290 300 306 305 300 301 302 300 296 291 282 273 270 268 266 265 267 269 272 273 274 273 272 276 267 256
298 302 308 309 305 300 298 301 302 303 303 301 306 307 305 302 298 292 291 296 299 299 298 296 293 289 284 276 270 272 270 268 267 269 272 274 276 278 281 280 281 281 265
295 294 308 303 300 298 301 306 305 304 302 304 308 309 307 302 299 293 290 292 293 294 294 292 290 291 294 289 275 274 276 276 271 271 272 272 274 276 281 283 284 287 279
284 293 300 299 299 303 308 308 304 303 305 305 311 310 310 308 305 300 295 295 295 296 297 294 300 300 308 310 304 295 288 282 278 274 272 271 271 272 276 280 282 287 283
293 300 301 297 299 302 304 306 301 303 301 299 302 303 306 307 305 306 304 301 298 303 306 306 308 307 310 307 303 301 288 283 277 273 271 269 269 270 271 274 277 280 283
294 296 294 297 298 300 301 299 298 298 299 297 299 301 304 307 307 306 307 306 301 298 300 303 304 304 308 307 303 304 302 293 283 277 272 268 266 265 266 267 271 272 277
293 293 295 297 298 298 297 296 293 295 294 295 296 299 301 303 304 307 307 306 305 303 300 304 301 301 300 301 300 298 293 287 280 275 270 266 261 259 259 260 262 265 269
292 293 296 299 302 302 294 291 291 293 287 286 287 290 295 303 302 304 303 302 300 297 299 306 306 304 300 300 299 298 296 287 277 273 267 263 259 254 253 253 254 256 260
291 294 296 298 296 295 293 288 282 280 279 276 277 280 286 292 296 298 296 297 296 299 297 299 303 303 302 304 309 305 300 290 283 276 268 262 255 250 248 247 248 246 247
291 291 290 291 294 294 291 285 278 277 274 270 269 272 277 283 287 289 296 297 299 300 299 299 300 301 302 307 313 317 314 306 296 285 272 264 253 245 242 241 241 238 237
289 284 287 291 294 294 289 284 278 280 275 271 269 267 275 293 306 310 313 313 313 311 308 302 299 301 304 314 314 314 311 311 301 277 274 265 252 237 229 234 235 231 227
283 284 284 288 294 297 301 308 315 308 296 285 279 272 279 293 306 318 318 320 328 322 311 303 300 298 298 300 304 305 306 308 304 313 321 287 257 238 224 220 219 216 216
285 284 283 284 288 293 306 314 323 332 313 303 289 282 295 307 317 302 309 326 326 321 316 310 301 292 290 289 291 294 293 293 285 291 304 283 260 242 225 219 209 206 208
279 281 283 285 288 298 313 319 328 337 312 304 296 291 289 292 307 314 328 325 309 304 307 306 291 285 282 277 271 276 285 290 285 273 253 260 257 240 225 210 204 201 200
284 285 285 288 293 306 317 323 335 321 311 309 308 313 319 307 316 331 341 325 317 313 323 324 320 315 310 305 297 287 284 290 292 287 258 247 257 238 212 198 198 196 195
286 291 296 300 303 307 318 329 339 330 317 319 317 322 330 326 329 338 340 326 323 330 332 325 322 317 311 304 305 291 273 272 275 285 304 312 276 245 194 183 179 184 187
Height
1547 1543 1539 1536 1532 1528 1525 1521 1516 1513 1509 1505 1502 1499 1494 1490 1486 1483 1479 1476 1474 1472 1471 1470 1469 1469 1468 1468 1469 1470 1471 1474 1476 1479 1482 1486 1490 1494 1498 1503 1508 1514 1519
1545 1540 1536 1532 1529 1525 1521 1517 1513 1509 1505 1502 1498 1494 1490 1485 1481 1477 1472 1468 1465 1463 1462 1461 1461 1461 1461 1461 1462 1463 1464 1466 1468 1471 1474 1478 1482 1486 1490 1495 1501 1506 1512
1542 1537 1533 1529 1526 1522 1518 1514 1510 1506 1502 1498 1494 1489 1485 1480 1476 1471 1466 1461 1457 1455 1453 1452 1452 1452 1453 1453 1454 1455 1456 1458 1460 1462 1466 1470 1474 1478 1483 1487 1493 1499 1505
1539 1534 1530 1527 1523 1519 1515 1511 1507 1503 1498 1494 1489 1484 1480 1475 1470 1465 1460 1455 1451 1447 1444 1443 1443 1444 1445 1446 1446 1447 1449 1450 1452 1454 1458 1461 1466 1470 1474 1479 1485 1491 1497
1536 1532 1528 1524 1520 1516 1512 1508 1504 1500 1495 1490 1485 1480 1475 1470 1464 1459 1454 1449 1444 1440 1437 1435 1435 1436 1437 1437 1438 1439 1441 1442 1444 1446 1449 1453 1457 1462 1466 1471 1477 1483 1489
1533 1529 1524 1521 1517 1513 1509 1505 1501 1496 1492 1487 1481 1475 1469 1464 1459 1453 1448 1443 1438 1433 1431 1430 1429 1429 1429 1430 1431 1432 1433 1435 1437 1439 1441 1445 1449 1453 1458 1463 1468 1474 1481
1530 1526 1521 1517 1514 1510 1506 1502 1498 1493 1487 1483 1477 1470 1463 1458 1453 1448 1443 1437 1432 1427 1424 1423 1422 1422 1421 1422 1423 1424 1426 1428 1429 1431 1433 1436 1441 1445 1450 1455 1460 1466 1472
1527 1523 1519 1514 1510 1507 1502 1499 1495 1489 1484 1480 1475 1467 1458 1451 1446 1442 1437 1432 1427 1422 1418 1416 1414 1414 1414 1415 1415 1417 1418 1420 1422 1424 1426 1429 1432 1437 1441 1446 1452 1457 1464
1524 1520 1516 1511 1507 1504 1499 1495 1492 1487 1481 1475 1472 1467 1458 1448 1440 1433 1430 1426 1422 1418 1414 1411 1409 1409 1409 1409 1409 1410 1411 1412 1414 1416 1418 1421 1424 1428 1433 1438 1443 1449 1455
1520 1516 1512 1508 1504 1500 1496 1492 1488 1484 1479 1472 1467 1462 1457 1450 1441 1430 1423 1420 1417 1413 1409 1407 1404 1403 1403 1403 1403 1403 1404 1405 1407 1409 1411 1413 1416 1420 1425 1430 1435 1441 1446
1516 1512 1509 1505 1500 1496 1492 1488 1484 1480 1475 1470 1464 1458 1451 1445 1439 1433 1423 1415 1411 1407 1405 1402 1400 1398 1397 1397 1397 1397 1398 1399 1401 1402 1404 1406 1408 1413 1417 1422 1427 1432 1437
1512 1508 1505 1500 1496 1492 1488 1484 1480 1475 1471 1466 1461 1455 1449 1443 1436 1430 1423 1415 1408 1403 1400 1398 1395 1394 1392 1391 1391 1391 1392 1393 1394 1395 1396 1398 1400 1404 1408 1413 1418 1423 1429
1508 1504 1500 1496 1492 1488 1484 1480 1475 1471 1466 1462 1457 1451 1445 1440 1434 1428 1421 1413 1406 1400 1397 1394 1391 1389 1387 1386 1386 1386 1386 1386 1387 1388 1389 1390 1393 1396 1400 1404 1409 1415 1420
1504 1500 1496 1492 1488 1484 1480 1475 1471 1466 1462 1457 1452 1447 1441 1435 1430 1425 1419 1412 1404 1397 1393 1390 1387 1385 1383 1380 1379 1380 1380 1380 1380 1381 1382 1383 1385 1388 1392 1397 1402 1407 1413
1500 1496 1492 1487 1483 1479 1475 1471 1466 1462 1457 1453 1447 1442 1436 1430 1425 1421 1416 1411 1406 1397 1390 1386 1383 1380 1378 1375 1374 1374 1373 1373 1373 1374 1375 1376 1378 1381 1385 1389 1395 1400 1406
1496 1492 1487 1483 1479 1475 1470 1466 1461 1457 1453 1448 1443 1437 1431 1425 1420 1415 1411 1407 1403 1397 1389 1383 1380 1376 1373 1371 1369 1367 1366 1366 1366 1366 1367 1369 1371 1374 1378 1383 1388 1393 1399
1492 1488 1483 1479 1474 1470 1465 1461 1456 1452 1447 1442 1438 1432 1427 1421 1415 1410 1406 1402 1398 1393 1386 1379 1376 1372 1369 1365 1362 1360 1359 1358 1357 1358 1359 1361 1363 1366 1371 1376 1381 1387 1392
1488 1484 1479 1475 1470 1465 1460 1456 1451 1447 1442 1437 1432 1427 1422 1416 1411 1406 1401 1397 1392 1388 1383 1376 1370 1367 1364 1360 1357 1354 1352 1350 1350 1350 1352 1353 1356 1359 1363 1369 1374 1380 1385
1484 1480 1476 1471 1466 1460 1455 1451 1446 1441 1436 1431 1426 1421 1416 1412 1407 1402 1397 1392 1387 1383 1378 1372 1366 1362 1358 1356 1352 1348 1345 1344 1343 1343 1344 1346 1349 1352 1356 1362 1367 1373 1379
1480 1476 1472 1467 1462 1457 1451 1446 1441 1435 1430 1425 1420 1416 1412 1407 1402 1398 1393 1387 1382 1377 1372 1367 1362 1357 1354 1351 1348 1343 1339 1338 1336 1336 1338 1340 1342 1345 1349 1354 1361 1366 1372
1476 1472 1468 1463 1459 1453 1447 1441 1436 1431 1425 1419 1414 1411 1407 1403 1399 1394 1389 1383 1378 1372 1367 1362 1357 1352 1348 1345 1343 1339 1336 1332 1331 1332 1332 1333 1336 1339 1342 1347 1353 1359 1366
1472 1468 1464 1460 1455 1450 1444 1439 1434 1428 1422 1416 1410 1406 1402 1398 1394 1389 1384 1379 1374 1368 1362 1357 1352 1347 1343 1341 1338 1335 1333 1330 1327 1328 1327 1328 1330 1332 1336 1341 1346 1353 1359
1468 1464 1460 1456 1451 1446 1441 1436 1431 1425 1418 1413 1407 1402 1398 1394 1390 1384 1378 1373 1368 1363 1358 1353 1347 1342 1338 1335 1333 1330 1328 1326 1323 1323 1324 1322 1325 1327 1330 1335 1340 1347 1353
1464 1460 1456 1452 1448 1443 1439 1433 1428 1421 1415 1410 1404 1399 1395 1390 1385 1380 1374 1368 1362 1357 1352 1347 1341 1337 1333 1330 1328 1326 1324 1321 1319 1319 1320 1319 1319 1321 1325 1329 1334 1341 1347
1461 1457 1453 1449 1444 1440 1436 1430 1425 1418 1412 1407 1401 1396 1392 1387 1382 1377 1370 1364 1357 1351 1346 1340 1335 1331 1328 1325 1324 1322 1320 1318 1315 1314 1315 1315 1315 1317 1320 1324 1329 1336 1342
1458 1454 1450 1446 1441 1437 1433 1428 1423 1416 1410 1404 1399 1393 1388 1384 1379 1374 1368 1361 1354 1348 1341 1334 1329 1325 1322 1319 1317 1316 1315 1314 1312 1311 1312 1312 1312 1314 1316 1319 1324 1330 1337